Temp
-5 -5 -5 -5 -5 -5 -5 -5 -5 -5 -6 -6 -6 -6 -7 -7 -7 -7 -7 -7 -7 -7 -7 -8 -8 -8 -8 -7 -8 -8 -8 -8 -8 -8 -8 -8 -8 -8 -8 -8 -8 -8
-5 -5 -5 -5 -5 -5 -5 -5 -5 -5 -5 -6 -6 -6 -7 -7 -7 -7 -7 -7 -7 -7 -8 -8 -8 -8 -8 -8 -8 -8 -8 -8 -8 -8 -8 -8 -8 -8 -7 -7 -8 -8
-5 -5 -5 -5 -5 -6 -6 -6 -5 -5 -5 -6 -6 -7 -7 -7 -7 -7 -7 -7 -8 -8 -8 -8 -8 -8 -8 -8 -8 -8 -8 -8 -8 -8 -8 -8 -8 -8 -8 -7 -8 -8
-5 -6 -6 -6 -6 -6 -6 -6 -6 -6 -6 -6 -6 -6 -7 -7 -7 -7 -8 -8 -8 -8 -8 -8 -8 -8 -8 -8 -8 -8 -8 -8 -8 -8 -8 -8 -8 -8 -8 -8 -8 -8
-6 -6 -6 -6 -6 -6 -6 -6 -6 -6 -6 -6 -6 -6 -7 -7 -7 -8 -8 -8 -8 -8 -8 -8 -8 -8 -8 -8 -8 -8 -8 -8 -8 -8 -8 -8 -8 -8 -8 -8 -8 -8
-6 -6 -6 -6 -6 -6 -6 -6 -6 -6 -7 -7 -6 -7 -7 -7 -7 -8 -8 -8 -8 -8 -8 -8 -8 -8 -8 -8 -8 -8 -8 -8 -8 -8 -8 -8 -8 -8 -8 -8 -8 -8
-6 -6 -6 -6 -6 -6 -7 -7 -7 -7 -7 -7 -7 -7 -7 -7 -8 -8 -8 -8 -8 -8 -9 -8 -8 -8 -8 -8 -8 -8 -8 -8 -8 -8 -8 -8 -8 -8 -8 -8 -8 -8
-6 -6 -6 -6 -6 -6 -7 -7 -7 -7 -8 -7 -7 -7 -7 -7 -8 -8 -8 -8 -8 -8 -8 -8 -8 -8 -8 -8 -8 -8 -8 -8 -8 -8 -8 -8 -8 -8 -8 -8 -8 -8
-6 -6 -6 -6 -6 -7 -7 -8 -8 -8 -8 -7 -7 -7 -7 -7 -8 -8 -8 -8 -8 -8 -8 -8 -8 -8 -8 -8 -8 -8 -8 -8 -8 -8 -8 -8 -8 -8 -8 -8 -8 -8
-6 -6 -6 -6 -7 -7 -8 -8 -8 -8 -8 -7 -7 -7 -7 -7 -8 -8 -8 -8 -8 -8 -8 -8 -8 -8 -8 -8 -8 -8 -8 -8 -8 -8 -8 -8 -7 -8 -8 -8 -8 -8
-7 -7 -7 -7 -7 -7 -8 -8 -9 -8 -8 -7 -8 -8 -7 -7 -8 -8 -8 -9 -9 -8 -8 -8 -8 -8 -8 -8 -8 -8 -8 -8 -8 -8 -8 -8 -8 -8 -8 -8 -8 -8
-7 -7 -7 -7 -8 -8 -8 -9 -9 -8 -8 -8 -8 -8 -8 -8 -8 -8 -9 -9 -8 -8 -8 -8 -8 -8 -8 -8 -8 -8 -8 -8 -8 -8 -8 -8 -8 -8 -8 -8 -8 -8
-7 -7 -7 -7 -8 -8 -8 -8 -8 -8 -8 -8 -8 -8 -8 -8 -8 -9 -9 -9 -8 -8 -8 -8 -8 -8 -8 -8 -8 -8 -8 -8 -8 -8 -8 -8 -8 -8 -8 -8 -8 -8
-7 -8 -8 -8 -8 -8 -8 -8 -8 -7 -8 -8 -8 -8 -8 -8 -8 -9 -9 -9 -8 -8 -9 -8 -8 -8 -8 -8 -8 -8 -8 -8 -8 -8 -8 -8 -8 -8 -8 -8 -8 -8
-7 -7 -7 -7 -8 -8 -8 -8 -7 -7 -8 -8 -8 -8 -8 -8 -8 -9 -9 -9 -9 -9 -8 -8 -8 -8 -8 -8 -8 -8 -8 -8 -8 -8 -9 -8 -8 -8 -8 -8 -8 -8
-7 -7 -7 -7 -7 -8 -8 -8 -7 -7 -8 -8 -8 -8 -8 -8 -8 -9 -9 -9 -9 -8 -8 -8 -8 -8 -8 -8 -8 -8 -8 -8 -9 -9 -9 -8 -9 -9 -9 -9 -9 -9
-7 -7 -7 -7 -7 -8 -8 -8 -8 -8 -8 -8 -8 -8 -8 -8 -9 -9 -9 -9 -9 -8 -8 -8 -8 -8 -8 -8 -8 -8 -8 -8 -9 -9 -8 -8 -9 -9 -9 -9 -9 -9
-7 -7 -7 -7 -7 -7 -8 -8 -8 -8 -8 -8 -8 -8 -8 -8 -9 -9 -9 -9 -9 -8 -8 -8 -8 -8 -8 -8 -8 -8 -8 -8 -9 -8 -8 -8 -9 -9 -9 -9 -9 -9
-7 -8 -8 -8 -8 -8 -8 -8 -8 -8 -8 -8 -8 -8 -8 -8 -9 -9 -9 -9 -9 -9 -9 -9 -8 -8 -8 -8 -8 -8 -7 -8 -8 -8 -8 -9 -9 -9 -9 -9 -9 -9
-8 -8 -8 -8 -8 -8 -8 -8 -8 -8 -8 -8 -8 -8 -8 -8 -9 -9 -9 -9 -9 -9 -9 -9 -9 -8 -8 -8 -8 -8 -7 -7 -7 -8 -8 -9 -9 -9 -9 -9 -9 -9
-8 -8 -8 -8 -8 -8 -8 -8 -8 -8 -8 -8 -8 -8 -8 -8 -9 -9 -9 -9 -9 -9 -9 -9 -9 -9 -8 -8 -8 -8 -7 -6 -7 -8 -8 -9 -9 -9 -9 -9 -9 -9
-8 -8 -8 -8 -8 -8 -8 -8 -8 -8 -8 -8 -8 -8 -8 -8 -9 -9 -9 -9 -9 -9 -9 -9 -9 -9 -8 -8 -8 -8 -7 -7 -7 -8 -9 -9 -8 -8 -9 -9 -9 -9
-8 -8 -8 -8 -8 -8 -8 -8 -8 -8 -8 -8 -8 -8 -8 -8 -9 -9 -9 -9 -9 -9 -9 -9 -9 -9 -8 -8 -8 -8 -7 -7 -7 -8 -8 -8 -8 -8 -9 -9 -9 -9
-8 -8 -8 -8 -8 -8 -8 -8 -8 -8 -8 -8 -8 -8 -8 -8 -9 -9 -9 -9 -9 -9 -9 -9 -9 -9 -9 -9 -8 -8 -7 -7 -8 -8 -8 -8 -8 -8 -9 -9 -9 -9
-8 -8 -8 -8 -8 -8 -8 -8 -8 -8 -8 -8 -8 -8 -8 -9 -9 -9 -9 -9 -9 -9 -9 -9 -9 -9 -9 -9 -9 -8 -7 -7 -8 -8 -8 -8 -8 -9 -8 -8 -9 -9
-8 -8 -8 -8 -8 -8 -8 -8 -8 -8 -8 -8 -8 -8 -9 -9 -9 -9 -9 -9 -9 -9 -9 -9 -9 -9 -9 -9 -9 -8 -7 -7 -7 -8 -8 -8 -8 -8 -8 -8 -8 -9
Height
5907 5908 5908 5908 5909 5909 5910 5911 5911 5911 5911 5912 5912 5913 5913 5914 5914 5914 5913 5913 5912 5911 5910 5910 5910 5909 5909 5909 5908 5907 5906 5906 5905 5904 5903 5902 5901 5900 5898 5897 5896 5895
5905 5906 5906 5907 5907 5908 5908 5908 5909 5910 5910 5910 5911 5911 5912 5912 5913 5912 5912 5912 5911 5910 5909 5909 5909 5909 5909 5908 5907 5906 5906 5905 5904 5903 5902 5901 5900 5899 5898 5897 5895 5894
5903 5904 5904 5905 5905 5905 5905 5906 5907 5907 5908 5909 5910 5910 5910 5911 5911 5911 5911 5910 5910 5909 5908 5908 5908 5908 5908 5907 5906 5905 5905 5903 5902 5901 5901 5900 5899 5898 5897 5896 5895 5893
5901 5901 5902 5902 5903 5903 5903 5904 5904 5905 5906 5907 5907 5908 5908 5909 5910 5910 5910 5909 5908 5907 5907 5907 5907 5907 5907 5906 5905 5904 5903 5902 5901 5900 5900 5899 5898 5897 5896 5895 5894 5892
5898 5899 5899 5900 5900 5901 5901 5902 5902 5902 5903 5904 5905 5906 5907 5908 5908 5908 5908 5907 5906 5906 5906 5906 5906 5906 5906 5905 5904 5903 5902 5901 5900 5899 5898 5898 5897 5895 5894 5893 5892 5891
5896 5896 5897 5897 5898 5898 5899 5899 5899 5899 5900 5902 5903 5904 5904 5905 5906 5906 5906 5905 5905 5905 5905 5905 5905 5905 5904 5904 5903 5902 5901 5900 5899 5899 5897 5896 5895 5893 5892 5891 5890 5888
5893 5894 5894 5895 5895 5896 5896 5896 5896 5897 5897 5899 5901 5901 5902 5903 5904 5904 5903 5903 5903 5903 5903 5903 5904 5904 5903 5903 5902 5901 5900 5899 5898 5897 5896 5894 5893 5891 5890 5888 5887 5885
5890 5890 5891 5891 5892 5893 5893 5893 5894 5894 5895 5897 5899 5899 5900 5900 5901 5901 5901 5902 5902 5902 5902 5902 5902 5902 5902 5901 5901 5900 5899 5898 5897 5896 5894 5892 5891 5889 5888 5886 5884 5883
5888 5888 5888 5889 5889 5890 5890 5890 5891 5891 5893 5895 5897 5897 5897 5898 5898 5899 5899 5900 5900 5900 5900 5900 5900 5900 5900 5900 5899 5898 5897 5897 5896 5894 5892 5890 5889 5887 5886 5884 5882 5880
5885 5885 5886 5886 5887 5887 5887 5888 5888 5889 5891 5893 5894 5895 5895 5895 5896 5896 5897 5898 5898 5898 5898 5899 5898 5898 5898 5898 5897 5897 5896 5895 5894 5892 5890 5888 5886 5885 5883 5882 5880 5878
5883 5883 5884 5884 5884 5885 5885 5885 5885 5887 5889 5891 5892 5893 5893 5893 5894 5894 5895 5896 5896 5896 5896 5897 5896 5896 5895 5895 5895 5895 5894 5892 5891 5889 5887 5885 5884 5882 5881 5879 5878 5876
5881 5881 5882 5882 5882 5882 5883 5882 5883 5885 5887 5889 5890 5891 5891 5891 5892 5892 5893 5893 5894 5894 5894 5894 5894 5893 5893 5893 5893 5892 5890 5889 5888 5886 5884 5883 5882 5880 5879 5877 5876 5874
5880 5880 5880 5880 5881 5880 5880 5880 5881 5883 5885 5887 5888 5888 5889 5889 5890 5890 5891 5891 5891 5892 5892 5892 5891 5891 5891 5891 5890 5889 5887 5885 5884 5882 5881 5881 5880 5878 5876 5875 5874 5872
5878 5878 5878 5879 5879 5878 5878 5878 5879 5881 5882 5884 5885 5886 5887 5887 5888 5888 5888 5889 5890 5890 5890 5890 5889 5889 5889 5888 5887 5885 5883 5882 5880 5879 5879 5878 5877 5875 5874 5873 5872 5870
5877 5877 5877 5877 5877 5876 5876 5876 5877 5878 5880 5881 5882 5884 5885 5885 5885 5886 5886 5887 5888 5888 5888 5887 5887 5887 5886 5885 5884 5882 5879 5878 5877 5876 5876 5875 5873 5872 5872 5870 5869 5868
5875 5875 5875 5875 5875 5875 5874 5874 5875 5876 5877 5878 5880 5882 5883 5883 5883 5884 5885 5886 5886 5886 5885 5885 5884 5884 5883 5882 5881 5879 5876 5874 5873 5873 5873 5872 5870 5869 5869 5868 5867 5865
5873 5873 5873 5873 5873 5873 5872 5871 5872 5873 5875 5876 5878 5880 5880 5881 5882 5883 5884 5884 5884 5884 5883 5882 5882 5881 5880 5879 5878 5876 5873 5870 5869 5870 5870 5869 5867 5866 5865 5864 5864 5862
5871 5870 5871 5871 5871 5871 5870 5869 5869 5871 5872 5873 5876 5877 5878 5879 5880 5881 5881 5881 5881 5881 5880 5880 5879 5878 5877 5876 5874 5873 5870 5865 5863 5866 5868 5866 5864 5863 5862 5861 5860 5858
5868 5868 5868 5869 5869 5868 5868 5867 5866 5867 5870 5872 5873 5874 5875 5876 5877 5878 5878 5878 5878 5878 5877 5877 5876 5875 5875 5873 5872 5870 5867 5861 5859 5862 5864 5862 5860 5860 5858 5857 5856 5854
5865 5865 5865 5866 5866 5865 5865 5865 5864 5865 5867 5869 5870 5870 5871 5872 5874 5875 5875 5875 5875 5874 5874 5874 5874 5873 5872 5871 5869 5868 5864 5859 5856 5858 5859 5858 5857 5857 5855 5853 5852 5850
5861 5862 5862 5862 5862 5862 5862 5862 5862 5862 5863 5865 5866 5867 5868 5869 5870 5871 5872 5872 5871 5871 5870 5871 5871 5871 5870 5868 5866 5864 5861 5857 5855 5856 5857 5855 5853 5852 5850 5849 5847 5845
5857 5858 5858 5858 5859 5859 5859 5859 5859 5859 5860 5861 5863 5864 5864 5865 5866 5867 5868 5868 5868 5867 5867 5867 5868 5868 5867 5865 5863 5861 5857 5855 5855 5855 5854 5852 5848 5847 5845 5843 5841 5840
5853 5854 5854 5855 5855 5855 5856 5856 5856 5857 5856 5857 5859 5860 5860 5861 5862 5864 5865 5864 5864 5864 5864 5864 5865 5865 5864 5862 5859 5856 5853 5852 5852 5852 5851 5848 5846 5844 5842 5839 5836 5836
5849 5850 5850 5850 5851 5852 5853 5853 5853 5853 5853 5854 5855 5856 5857 5858 5859 5860 5860 5860 5860 5860 5860 5861 5861 5861 5859 5857 5855 5853 5850 5847 5847 5848 5849 5846 5843 5840 5838 5836 5834 5833
5844 5845 5846 5846 5847 5848 5850 5850 5850 5850 5850 5851 5852 5852 5853 5854 5855 5856 5856 5856 5856 5856 5856 5857 5857 5856 5854 5851 5850 5849 5847 5843 5841 5843 5843 5842 5840 5836 5834 5832 5831 5830
5840 5841 5842 5842 5843 5844 5846 5847 5847 5847 5847 5847 5848 5848 5849 5850 5851 5851 5851 5851 5851 5850 5851 5852 5851 5850 5848 5846 5845 5846 5844 5840 5838 5838 5836 5835 5834 5832 5830 5829 5828 5827
Wind_Speed
15 15 16 16 15 14 15 16 18 18 18 16 16 16 17 17 15 11 9 8 8 8 9 9 10 11 11 11 9 8 7 7 9 10 12 13 13 14 15 16 17 18
16 17 17 17 16 16 16 18 19 20 20 19 17 17 18 17 15 12 10 9 9 10 10 10 11 12 12 12 11 10 10 10 11 13 14 15 16 16 17 18 19 19
17 18 18 18 18 18 19 20 20 21 22 21 19 19 18 17 15 12 11 10 11 11 11 12 12 13 13 13 13 13 13 13 14 15 16 17 18 19 19 20 21 22
19 20 20 20 20 21 22 21 21 22 23 23 21 20 19 17 15 14 12 12 12 13 12 13 13 13 14 14 14 14 14 14 14 15 16 18 19 20 20 21 22 24
20 21 22 23 23 23 24 23 23 24 24 24 24 22 19 17 16 15 14 14 14 13 13 13 13 13 13 13 14 14 14 14 14 15 17 18 19 20 20 21 22 23
19 21 23 24 24 25 25 25 25 26 26 25 24 22 19 18 18 17 16 16 15 14 14 13 13 13 13 14 14 15 15 15 15 16 17 18 19 20 20 21 22 24
17 20 23 25 26 26 26 27 28 28 27 26 24 22 20 19 19 19 18 17 16 15 14 14 14 14 14 15 15 16 16 15 15 16 18 19 20 20 21 21 23 24
17 19 22 25 26 27 28 28 29 29 28 26 23 21 20 20 21 21 20 18 17 16 16 15 15 16 16 15 15 16 16 15 15 17 19 21 22 22 22 23 25 26
17 19 22 25 26 27 28 29 29 29 28 25 23 22 22 22 22 22 20 19 18 17 17 17 17 17 17 15 15 16 16 16 17 18 20 22 22 23 24 25 26 27
17 19 21 22 24 26 27 29 30 30 28 25 23 23 23 23 23 23 21 20 19 18 18 17 17 18 17 16 16 16 16 16 17 18 20 21 22 23 24 26 27 27
16 18 18 18 21 24 27 28 30 30 27 24 24 24 24 24 24 23 21 20 19 18 17 16 16 17 17 17 15 15 16 17 17 18 20 22 23 23 23 25 27 27
16 16 15 15 19 24 27 29 30 30 27 25 25 25 25 25 24 23 22 21 20 18 16 15 16 17 16 15 14 14 16 18 19 20 21 22 23 24 24 26 27 27
15 16 15 14 17 24 29 31 32 30 27 25 26 26 26 26 25 24 23 21 19 17 16 16 16 16 15 14 13 15 19 22 23 24 24 24 24 25 25 26 27 27
15 17 17 16 18 25 30 33 33 30 27 28 28 28 27 26 25 24 23 21 18 17 17 16 15 14 15 16 17 19 23 25 26 27 28 28 27 27 27 26 26 27
16 18 19 19 20 24 30 34 33 29 29 30 29 28 27 27 26 24 22 20 18 18 17 15 14 14 16 18 20 22 26 28 28 28 29 28 30 32 30 27 25 26
18 19 20 22 22 24 29 34 34 31 32 32 30 28 28 28 27 24 21 20 19 18 17 15 15 15 16 18 19 23 27 29 29 28 27 29 32 33 29 25 24 25
20 21 22 23 24 25 28 34 36 34 34 33 31 29 29 29 28 24 22 22 21 19 18 17 16 15 15 16 19 23 28 32 32 30 29 31 33 29 25 25 26 27
22 23 24 25 26 27 28 33 37 37 36 35 32 30 30 30 29 26 25 24 23 22 20 19 17 16 15 16 20 24 29 34 36 32 30 31 30 26 24 25 28 30
24 25 26 26 27 29 29 33 38 39 38 37 34 31 32 32 30 29 27 25 24 23 21 20 17 15 15 17 21 24 29 36 38 34 31 31 29 26 25 25 29 32
24 26 27 28 29 31 32 32 36 40 40 39 37 34 34 34 32 30 28 27 26 25 24 21 18 16 16 18 21 25 30 35 38 35 33 32 29 27 26 27 30 33
26 27 27 28 29 31 32 32 35 40 42 41 39 37 36 35 33 31 29 28 28 27 26 23 20 17 17 19 22 26 31 35 36 36 34 33 32 30 29 29 31 32
29 29 28 28 28 30 31 32 34 38 42 43 41 39 39 38 36 32 30 30 29 28 27 24 21 19 19 21 24 28 33 35 35 35 34 34 35 34 32 32 34 33
32 31 30 29 29 29 30 31 33 37 41 43 42 41 40 40 38 33 31 31 31 30 29 26 23 22 22 24 27 31 35 36 35 34 33 34 35 33 33 35 35 34
34 33 32 31 31 30 29 29 31 35 39 43 43 42 42 41 39 35 34 35 34 33 30 28 26 25 25 27 30 33 37 38 36 33 33 35 35 33 33 35 35 34
33 34 33 32 32 32 30 29 30 32 37 42 43 42 42 42 41 40 39 39 38 36 33 30 29 29 29 31 33 35 38 40 40 37 35 36 35 32 33 35 36 36
32 33 34 34 34 33 32 32 31 31 35 40 44 44 44 43 43 44 43 42 41 41 37 34 34 34 34 35 36 37 39 40 40 40 38 36 33 33 35 37 38 38
Wind_Direction
246 247 246 245 244 247 251 254 259 264 265 265 269 273 275 276 274 266 260 261 267 276 285 290 296 306 310 311 314 320 330 335 336 335 336 337 341 344 346 345 345 347
247 247 247 247 247 247 247 250 256 263 266 266 268 271 272 272 267 256 248 250 260 269 275 282 290 297 300 301 303 309 315 319 322 324 324 326 329 332 335 336 337 338
245 247 247 247 246 245 245 249 253 259 263 265 267 267 267 266 258 245 240 244 254 261 268 276 285 290 292 294 297 301 307 311 315 318 320 323 326 328 331 331 330 330
245 246 245 244 243 244 246 248 250 253 257 261 261 261 262 259 247 238 240 246 250 254 262 272 281 286 289 292 297 302 308 312 316 319 322 326 328 330 332 332 330 328
247 247 247 246 244 244 246 247 248 249 252 256 256 257 256 248 236 234 241 245 246 250 258 268 277 283 288 292 298 303 307 311 317 321 326 329 331 334 336 337 336 333
251 251 252 250 248 247 246 246 245 246 248 250 252 251 246 236 230 234 241 241 241 245 253 262 269 275 282 290 296 300 304 309 315 322 327 331 333 336 339 339 340 339
256 254 253 252 250 247 246 245 243 244 244 245 248 246 236 227 227 233 238 237 237 242 249 255 262 269 277 286 292 300 306 311 317 325 332 335 336 337 336 335 337 338
262 258 254 252 249 244 243 243 241 241 241 242 244 239 226 222 226 230 232 232 233 240 247 253 261 269 276 283 292 303 309 314 321 330 336 337 337 337 334 331 331 331
265 261 257 254 249 243 240 239 238 236 236 238 237 229 221 220 224 226 227 229 231 238 245 253 263 270 275 283 294 304 310 318 326 333 335 335 334 335 334 332 329 326
267 263 260 257 251 242 235 234 234 233 232 233 229 221 219 220 221 222 223 226 231 238 245 253 261 269 276 286 296 304 312 323 332 334 333 330 329 330 331 332 329 325
268 265 264 261 251 238 230 229 231 232 232 229 221 217 219 221 219 219 222 226 232 238 243 251 261 269 279 289 298 306 315 323 329 329 327 325 325 325 324 326 327 325
269 268 267 264 249 234 227 226 229 232 231 223 215 216 219 219 217 218 221 226 231 236 242 251 261 271 281 290 299 309 316 320 321 321 319 319 320 319 316 319 322 323
273 269 267 263 247 233 228 228 230 232 227 217 214 217 219 218 218 218 220 225 229 235 243 252 261 271 281 288 296 305 313 317 316 314 315 318 320 318 315 316 320 322
275 269 265 261 249 237 233 234 236 232 221 215 216 217 218 219 219 219 220 224 229 236 243 250 259 271 281 288 294 302 310 314 311 311 316 319 318 315 313 314 317 318
272 270 268 263 255 245 240 241 241 232 219 217 218 217 219 221 220 218 220 225 231 237 242 249 259 271 282 290 298 304 309 311 310 311 316 316 311 309 310 311 310 311
268 271 273 269 263 253 246 245 244 232 220 219 220 220 222 222 218 217 220 226 230 235 242 252 262 275 286 295 302 305 307 309 309 308 310 312 311 310 311 313 311 310
266 270 274 273 270 261 250 248 247 236 224 222 223 223 224 221 217 217 222 229 233 237 245 254 263 275 289 299 304 305 307 307 304 304 306 310 311 310 311 314 313 314
267 268 270 272 272 267 256 249 248 240 230 228 228 227 226 223 219 222 228 234 240 244 248 255 263 274 289 299 302 305 306 302 298 301 305 306 307 309 311 312 315 318
264 264 266 268 270 269 262 251 248 244 238 236 235 231 228 226 224 228 234 240 244 248 252 258 265 276 288 296 300 301 301 299 297 300 303 304 307 311 313 314 319 322
265 263 264 266 266 268 266 257 250 247 243 240 239 237 234 230 230 234 238 243 247 251 255 260 267 275 283 289 294 295 295 297 300 301 301 303 307 310 310 315 322 325
273 269 266 264 264 266 268 263 253 249 246 242 242 244 241 236 235 237 241 245 250 255 259 263 267 273 280 284 288 291 291 294 299 302 302 303 305 305 308 315 324 327
272 272 268 265 264 265 268 266 258 251 248 245 243 245 245 241 240 241 243 247 252 256 260 264 268 272 278 282 285 288 289 292 299 305 304 303 303 306 311 320 327 329
266 267 266 264 264 265 266 267 262 254 248 245 245 246 248 247 245 245 247 249 253 257 259 263 267 270 275 279 281 284 287 290 296 300 300 300 303 307 314 321 325 326
260 262 263 262 261 262 263 264 263 256 248 245 245 247 249 249 246 245 248 250 253 256 259 261 265 268 271 273 275 280 286 288 290 292 294 299 304 308 314 319 321 321
255 256 258 260 259 257 259 262 263 259 251 245 244 247 249 247 245 245 249 253 255 256 257 260 263 264 267 268 270 276 283 286 287 288 290 297 303 307 312 315 317 317
258 257 257 259 257 254 255 259 261 260 255 247 244 245 246 245 245 247 249 252 255 256 256 258 259 261 263 263 266 273 279 282 285 288 292 299 303 305 307 310 311 312